EW8816 Weather Reports


Display with metric or nautical units.
time (UTC)temp
F
wind
direction
speed
MPH
gust
MPH
rain 1hr
in
rain 24hr
in
rain mn
in
humidity
%
barometer
mb
20260505014026 62 292 1.0 8.0 0.00 0.00 0.00 49 1011.3
20260505013522 62 255 2.0 8.0 0.00 0.00 0.00 49 1011.3
20260505013043 62 84 2.0 7.0 0.00 0.00 0.00 48 1011.1
20260505012522 62 266 1.0 8.0 0.00 0.00 0.00 48 1011.0
20260505012022 63 275 3.0 8.0 0.00 0.00 0.00 48 1010.8
20260505011549 63 264 2.0 7.0 0.00 0.00 0.00 46 1010.8
20260505011021 63 262 3.0 8.0 0.00 0.00 0.00 46 1010.7
20260505010525 63 278 2.0 8.0 0.00 0.00 0.00 45 1010.6
20260505010040 63 279 2.0 8.0 0.00 0.00 0.00 44 1010.5
20260505005523 63 276 0.0 4.0 0.00 0.00 0.00 43 1010.4
20260505005023 63 0 0.0 4.0 0.00 0.00 0.00 42 1010.2
20260505004543 63 271 0.0 3.0 0.00 0.00 0.00 43 1010.1
20260505004020 63 0 0.0 3.0 0.00 0.00 0.00 44 1010.1
20260505003522 63 0 0.0 1.0 0.00 0.00 0.00 43 1010.0
20260505003035 63 0 0.0 1.0 0.00 0.00 0.00 43 1009.9
20260505002522 63 0 0.0 2.0 0.00 0.00 0.00 43 1009.8
20260505002022 63 0 0.0 2.0 0.00 0.00 0.00 42 1009.7
20260505001540 63 271 0.0 2.0 0.00 0.00 0.00 42 1009.5
20260505001022 64 0 0.0 1.0 0.00 0.00 0.00 43 1009.4
20260505000522 64 0 0.0 1.0 0.00 0.00 0.00 41 1009.3
20260505000043 65 0 0.0 1.0 0.00 0.00 0.00 40 1009.2
20260504235522 65 0 0.0 1.0 0.00 0.00 0.00 39 1009.1
20260504235023 66 0 0.0 2.0 0.00 0.00 0.00 39 1009.1
20260504234538 66 0 0.0 3.0 0.00 0.00 0.00 37 1009.1
20260504234022 67 279 0.0 3.0 0.00 0.00 0.00 37 1008.9
20260504233523 67 272 0.0 2.0 0.00 0.00 0.00 37 1008.9
20260504233053 67 272 0.0 3.0 0.00 0.00 0.00 36 1008.8
20260504232523 67 262 1.0 3.0 0.00 0.00 0.00 36 1008.7
20260504232021 68 0 0.0 4.0 0.00 0.00 0.00 36 1008.8
20260504231544 68 0 1.0 4.0 0.00 0.00 0.00 36 1008.7
20260504231022 68 256 0.0 3.0 0.00 0.00 0.00 35 1008.6
20260504230521 68 0 1.0 4.0 0.00 0.00 0.00 35 1008.6
20260504230044 69 278 0.0 5.0 0.00 0.00 0.00 35 1008.6
20260504225519 69 270 1.0 5.0 0.00 0.00 0.00 34 1008.5
20260504225023 69 253 0.0 13.0 0.00 0.00 0.00 34 1008.3
20260504224538 69 276 2.0 13.0 0.00 0.00 0.00 34 1008.4
20260504224022 69 245 4.0 13.0 0.00 0.00 0.00 34 1008.2
20260504223522 69 279 3.0 10.0 0.00 0.00 0.00 34 1008.2
20260504223040 69 258 3.0 10.0 0.00 0.00 0.00 34 1008.2
20260504222522 69 254 2.0 6.0 0.00 0.00 0.00 35 1008.1
20260504222023 69 282 2.0 9.0 0.00 0.00 0.00 34 1008.2
20260504221545 70 285 1.0 9.0 0.00 0.00 0.00 34 1008.2
20260504221022 70 274 0.0 9.0 0.00 0.00 0.00 34 1008.1
20260504220526 70 230 4.0 9.0 0.00 0.00 0.00 33 1008.2
20260504220038 70 248 3.0 6.0 0.00 0.00 0.00 33 1008.2
20260504215523 69 250 2.0 6.0 0.00 0.00 0.00 34 1008.2
20260504215019 69 0 1.0 6.0 0.00 0.00 0.00 34 1008.2
20260504214543 69 289 1.0 8.0 0.00 0.00 0.00 34 1008.1
20260504214020 69 251 2.0 13.0 0.00 0.00 0.00 33 1008.1
20260504213522 70 271 4.0 13.0 0.00 0.00 0.00 34 1008.2
20260504213045 69 263 2.0 7.0 0.00 0.00 0.00 34 1008.0
20260504212522 69 278 0.0 7.0 0.00 0.00 0.00 34 1008.1
20260504212021 69 292 4.0 8.0 0.00 0.00 0.00 34 1008.0
20260504211538 69 250 2.0 8.0 0.00 0.00 0.00 34 1008.0
20260504211019 69 290 2.0 9.0 0.00 0.00 0.00 33 1008.1
20260504210526 70 278 3.0 9.0 0.00 0.00 0.00 33 1008.1
20260504210041 70 253 3.0 8.0 0.00 0.00 0.00 32 1008.3
20260504205526 70 260 1.0 7.0 0.00 0.00 0.00 33 1008.0
20260504205020 70 0 2.0 11.0 0.00 0.00 0.00 33 1008.0
20260504204559 70 275 2.0 11.0 0.00 0.00 0.00 32 1008.0
20260504204022 71 345 2.0 4.0 0.00 0.00 0.00 33 1008.1
20260504203520 70 259 1.0 8.0 0.00 0.00 0.00 33 1008.2
20260504203044 70 258 2.0 8.0 0.00 0.00 0.00 32 1008.1
20260504202522 70 0 3.0 8.0 0.00 0.00 0.00 33 1008.1
20260504202019 70 251 1.0 8.0 0.00 0.00 0.00 33 1008.1
20260504201539 71 335 1.0 8.0 0.00 0.00 0.00 32 1008.2
20260504201022 71 338 2.0 6.0 0.00 0.00 0.00 33 1008.1
20260504200522 70 329 1.0 8.0 0.00 0.00 0.00 32 1008.0
20260504200043 70 248 1.0 14.0 0.00 0.00 0.00 32 1008.2
20260504195522 70 280 3.0 14.0 0.00 0.00 0.00 32 1008.1
20260504195022 70 252 5.0 14.0 0.00 0.00 0.00 32 1008.2
20260504194546 70 0 3.0 14.0 0.00 0.00 0.00 32 1008.3
20260504194022 71 278 2.0 14.0 0.00 0.00 0.00 31 1008.1
20260504193522 71 252 2.0 14.0 0.00 0.00 0.00 31 1008.2
20260504193045 72 262 4.0 11.0 0.00 0.00 0.00 31 1008.3
20260504192521 71 0 2.0 6.0 0.00 0.00 0.00 31 1008.2
20260504192021 71 89 2.0 6.0 0.00 0.00 0.00 31 1008.3
20260504191544 71 292 0.0 10.0 0.00 0.00 0.00 32 1008.2
20260504191022 70 297 1.0 10.0 0.00 0.00 0.00 32 1008.3
20260504190520 70 253 3.0 13.0 0.00 0.00 0.00 31 1008.3
20260504190043 70 257 2.0 13.0 0.00 0.00 0.00 31 1008.5
20260504185522 70 255 1.0 13.0 0.00 0.00 0.00 31 1008.5
20260504185019 70 282 4.0 13.0 0.00 0.00 0.00 32 1008.6
20260504184539 69 276 4.0 9.0 0.00 0.00 0.00 31 1008.6
20260504184021 68 268 3.0 9.0 0.00 0.00 0.00 32 1008.5
20260504183521 69 257 1.0 7.0 0.00 0.00 0.00 33 1008.6
20260504183035 68 287 1.0 8.0 0.00 0.00 0.00 32 1008.6
20260504182521 68 267 3.0 8.0 0.00 0.00 0.00 32 1008.6
20260504182022 68 287 1.0 6.0 0.00 0.00 0.00 33 1008.6
20260504181549 68 291 2.0 6.0 0.00 0.00 0.00 34 1008.7
20260504181021 67 0 2.0 8.0 0.00 0.00 0.00 33 1008.6
20260504180520 67 264 2.0 11.0 0.00 0.00 0.00 33 1008.8
20260504180045 67 246 3.0 11.0 0.00 0.00 0.00 33 1008.7
20260504175522 68 285 3.0 11.0 0.00 0.00 0.00 32 1008.8
20260504175021 68 248 2.0 12.0 0.00 0.00 0.00 32 1008.8
20260504174539 68 264 6.0 12.0 0.00 0.00 0.00 32 1008.7
20260504174021 69 261 4.0 15.0 0.00 0.00 0.00 31 1008.8
20260504173522 69 285 5.0 15.0 0.00 0.00 0.00 32 1008.8
20260504173038 69 283 4.0 16.0 0.00 0.00 0.00 31 1008.8
20260504172524 69 281 6.0 16.0 0.00 0.00 0.00 32 1009.0
20260504172022 69 258 2.0 11.0 0.00 0.00 0.00 34 1008.9
20260504171535 68 283 4.0 12.0 0.00 0.00 0.00 33 1009.1
20260504171023 68 254 4.0 12.0 0.00 0.00 0.00 32 1009.3
20260504170522 68 31 4.0 11.0 0.00 0.00 0.00 32 1009.2
20260504151022 63 254 6.0 17.0 0.00 0.00 0.00 39 1009.9
20260504150524 63 287 4.0 14.0 0.00 0.00 0.00 39 1010.0
20260504141021 61 287 0.0 7.0 0.00 0.00 0.00 45 1010.8
20260504140522 60 290 2.0 9.0 0.00 0.00 0.00 44 1010.8
20260504130522 56 288 4.0 9.0 0.00 0.00 0.00 49 1011.3
20260504110521 41 0 0.0 0.0 0.00 0.00 0.00 74 1012.0
20260504100522 40 0 0.0 0.0 0.00 0.00 0.00 74 1011.9
20260504081547 41 270 0.0 0.0 0.00 0.00 0.00 70 1011.6
20260504081020 40 0 0.0 0.0 0.00 0.00 0.00 69 1011.6
20260504080522 40 0 0.0 0.0 0.00 0.00 0.00 70 1011.6
20260504050523 34 0 0.0 0.0 0.00 0.00 0.00 82 1011.7
20260504045522 34 0 0.0 0.0 0.00 0.00 0.00 82 1011.8
20260504045022 34 0 0.0 0.0 0.00 0.00 0.00 81 1011.8
20260504044538 34 0 0.0 0.0 0.00 0.00 0.00 81 1011.8
20260504044022 34 0 0.0 0.0 0.00 0.00 0.00 81 1011.8
20260504043520 35 0 0.0 0.0 0.00 0.00 0.00 81 1011.8
20260504043042 34 0 0.0 0.0 0.00 0.00 0.00 81 1011.8
20260504042523 35 0 0.0 0.0 0.00 0.00 0.00 82 1011.8
20260504042022 34 0 0.0 0.0 0.00 0.00 0.00 81 1011.8
20260504041538 34 0 0.0 0.0 0.00 0.00 0.00 81 1011.8
20260504041022 35 0 0.0 0.0 0.00 0.00 0.00 81 1011.8
20260504040522 35 0 0.0 0.0 0.00 0.00 0.00 81 1011.8
20260504040038 35 0 0.0 0.0 0.00 0.00 0.00 80 1011.7
20260504035522 35 0 0.0 0.0 0.00 0.00 0.00 80 1011.7
20260504035021 35 0 0.0 0.0 0.00 0.00 0.00 81 1011.6
20260504034541 35 0 0.0 0.0 0.00 0.00 0.00 81 1011.5
20260504034022 35 0 0.0 0.0 0.00 0.00 0.00 81 1011.6
20260504033520 35 0 0.0 0.0 0.00 0.00 0.00 82 1011.6
20260504033040 35 0 0.0 0.0 0.00 0.00 0.00 82 1011.5
20260504032522 35 0 0.0 0.0 0.00 0.00 0.00 82 1011.5
20260504032020 35 0 0.0 0.0 0.00 0.00 0.00 81 1011.5
20260504031538 35 0 0.0 0.0 0.00 0.00 0.00 81 1011.5
20260504031021 36 0 0.0 0.0 0.00 0.00 0.00 81 1011.5
20260504030522 36 0 0.0 0.0 0.00 0.00 0.00 80 1011.5
20260504030039 36 0 0.0 0.0 0.00 0.00 0.00 80 1011.5
20260504025522 36 0 0.0 0.0 0.00 0.00 0.00 80 1011.4
20260504025022 36 0 0.0 0.0 0.00 0.00 0.00 80 1011.4
20260504024548 36 0 0.0 0.0 0.00 0.00 0.00 79 1011.5
20260504024022 36 0 0.0 0.0 0.00 0.00 0.00 79 1011.4
20260504023522 37 0 0.0 0.0 0.00 0.00 0.00 78 1011.4
20260504023043 37 0 0.0 0.0 0.00 0.00 0.00 78 1011.4
20260504022520 37 0 0.0 0.0 0.00 0.00 0.00 79 1011.4
20260504022021 37 0 0.0 0.0 0.00 0.00 0.00 78 1011.4
20260504021538 38 0 0.0 0.0 0.00 0.00 0.00 78 1011.3
20260504021022 38 0 0.0 0.0 0.00 0.00 0.00 77 1011.3
20260504020521 38 0 0.0 0.0 0.00 0.00 0.00 77 1011.4
20260504020111 38 0 0.0 0.0 0.00 0.00 0.00 76 1011.3
20260504015520 39 0 0.0 0.0 0.00 0.00 0.00 74 1011.3
20260504015022 39 0 0.0 0.0 0.00 0.00 0.00 72 1011.3
20260504014554 39 0 0.0 0.0 0.00 0.00 0.00 71 1011.3